Flag for Germany Weather past 2 weeks in Plettenberg, North Rhine-Westphalia, Germany

Now
43 °F

Partly sunny.


Feels Like: 37 °F
Forecast: 32 / 50 °F
Wind: 9 mph from Southwest

Location: Dortmund / Wickede

Current Time: Mar 6, 2015 at 10:33:38 AM

Latest Report: Mar 6, 2015 at 10:20 AM


Visibility: N/A

Pressure: 30.60 "Hg

Humidity: 66%

Dew point: 32 °F

Location of PlettenbergLocation

Historic Weather in Plettenberg — Graph

°F

Plettenberg temperature yesterday

Maximum temperature yesterday: 45 °F (at 2:20 PM)
Minimum temperature yesterday: 36 °F (at 5:50 AM)
Average temperature yesterday: 41 °F

Past Weeks' High & Low Weather Summary

 TemperatureHumidityPressure
High52 °F (Mar 1, 12:50 PM)93% (Feb 21, 7:20 PM)30.63 "Hg (Feb 21, 7:20 PM)
Low30 °F (Feb 28, 5:20 AM)42% (Feb 28, 1:50 PM)29.33 "Hg (Feb 21, 5:20 AM)
Average40 °F74%29.90 "Hg
* Reported Feb 19 9:20 AM — Mar 6 9:20 AM, Plettenberg, Weather by CustomWeather, © 2015

Note: Actual official high and low records may vary slightly from our data, if they occured in-between our weather recording intervals... More about our weather records

Advertising

Plettenberg weather history for previous 24 hours

 ConditionsComfort  
Time TempWeatherWind HumidityBarometerVisibility
9:20 AM
Fri, Mar 6
41 °FPartly sunny.9 mph70%30.60 "HgN/A
8:50 AM41 °FPartly sunny.8 mph70%30.60 "HgN/A
8:20 AM39 °FPartly sunny.8 mph75%30.60 "HgN/A
7:50 AM39 °FPartly sunny.8 mph75%30.60 "HgN/A
7:20 AM39 °FPartly sunny.9 mph75%30.57 "HgN/A
6:50 AM39 °FPassing clouds.9 mph75%30.60 "HgN/A
6:20 AM39 °FPassing clouds.8 mph75%30.60 "HgN/A
5:50 AM39 °FPassing clouds.8 mph75%30.60 "HgN/A
5:20 AM37 °FPassing clouds.9 mph81%30.60 "HgN/A
10:20 PM
Thu, Mar 5
37 °FClear.8 mph75%30.60 "Hg10 mi
9:50 PM37 °FClear.9 mph81%30.60 "Hg10 mi
9:20 PM39 °FClear.9 mph75%30.60 "Hg10 mi
8:50 PM39 °FClear.8 mph75%30.60 "Hg10 mi
8:20 PM41 °FClear.6 mph70%30.60 "Hg10 mi
7:50 PM43 °FClear.5 mph66%30.60 "Hg10 mi
7:20 PM43 °FClear.3 mph66%30.60 "Hg10 mi
6:50 PM45 °FClear.3 mph61%30.60 "Hg10 mi
6:20 PM45 °FClear.3 mph61%30.60 "Hg10 mi
5:50 PM45 °FPassing clouds.6 mph57%30.60 "HgN/A
5:20 PM45 °FScattered clouds.6 mph61%30.60 "HgN/A
4:50 PM45 °FScattered clouds.7 mph57%30.60 "HgN/A
4:20 PM45 °FScattered clouds.7 mph61%30.60 "HgN/A
3:50 PM45 °FBroken clouds.7 mph61%30.60 "HgN/A
3:20 PM45 °FPartly sunny.7 mph61%30.60 "HgN/A
2:50 PM45 °FPartly sunny.7 mph57%30.60 "HgN/A
2:20 PM45 °FScattered clouds.7 mph61%30.60 "HgN/A
1:50 PM43 °FScattered clouds.8 mph66%30.60 "HgN/A
1:20 PM43 °FScattered clouds.7 mph76%30.63 "HgN/A
12:50 PM43 °FScattered clouds.7 mph71%30.63 "HgN/A
12:20 PM41 °FPartly sunny.7 mph81%30.63 "HgN/A
11:50 AM41 °FPartly sunny.8 mph76%30.63 "HgN/A
11:20 AM41 °FPartly sunny.8 mph76%30.63 "HgN/A
10:50 AM39 °FPartly sunny.8 mph87%30.63 "Hg6 mi
10:20 AM39 °FPartly sunny.7 mph81%30.63 "Hg5 mi
Weather by CustomWeather, © 2015

See weather overviewHow to use our weather pages